IRIDIUM 33 DEB, 33773

Orbit data source: Space-Track

IRIDIUM 33 DEB, 33773 is space debris in LEO originally from a launch on Sun, 14 Sep 1997 UTC launched from the Tyuratam Missile And Space Complex (TTMTR). The debris from Iridium 33, an American commercial communications satellite, has been tracked extensively since its accidental collision with the defunct Russian satellite Cosmos 2251 in 2009. This event, occurring at high speed in low Earth orbit (LEO), generated thousands of pieces of space debris, significantly increasing the risk of further collisions. The Iridium 33 debris cloud has impacted space traffic management and orbital debris mitigation strategies, making it a subject of ongoing study in space situational awareness.

Loading next visibility...
Identifier
33773, 1997-051L
Orbit
LEO
Country
Flag of USUS
Related business
Manufacturer
Unknown
Mission
Spacecraft
Bus & Motor
Unknown
Mass
Unknown
Launch date (UTC)
1997-09-14 (28 years ago)
Launch vehicle
Unknown
Launch site
Tyuratam Missile And Space Complex (TTMTR)
Object type
Payload
Rocket body
Debris
Shape & HBR
Unknown shape, 0.8 m
Radar Cross Section
Medium (>0.1 m² and <1 m²)

Expand to show TLE details & history
Last TLE update: 14 hours ago

TLE from 14 hours ago
0 IRIDIUM 33 DEB
1 33773U 97051L   26037.52455590  .00001545  00000-0  45174-3 0  9997
2 33773  86.3986  36.9328 0010295 341.0542  19.0275 14.43403124891527
Epoch: 2026-02-06T12:35Z
TLE epoch observation values (Epoch: 2026-02-06T12:35:21.629Z)
Latitude
0.00002°
Longitude
71.43149°
Altitude
743.405 km
Speed
7.487 km/s
True Right ascension
02h 27m 43s
True Declination
0° 00' 00"
Sunlit
Object was in daylight at epoch
Visualization orbit readout
Latitude
Unknown
Longitude
Unknown
Altitude
Unknown
Speed
Unknown
Apparent Right ascension
Unknown
Apparent Declination
Unknown
Sunlit
N/A
Visualization observer readout
Local Sidereal Time
04:55:47
Azimuth
Unknown
Elevation
Unknown
Doppler factor
Unknown
Orbital elements
Apogee altitude
751.561 km
Perigee altitude
736.896 km
Semi-major axis
7,122.365 km
Eccentricity
0.00103
Inclination
86.3986°
RAAN
36.9328°
Arg. of periapsis
341.0542°
True anomaly
19.06601°
Mean anomaly
19.0275°
Eccentric anomaly
19.04675°
Mean motion
3.61083 °/min
Orbital period
99.7 mins
BSTAR
0.00045174
Loading maneuver chart data...
Computing Atmospheric mass density...

Documentation

Showing up to 5 results
|